period_start,C,m1,H,J0,J1,J2,J3,J4,J5,JA,JB,JC,JD,JJ,JK,JN,#
2016-06-03 00:03:56,0.06,0.96,0.00,28.34,32.14,34.81,14.17,47.42,1015.15,2014.99,3087.47,2848.05,3229.12,599.95,584.58,13.82,0000 0000 0000 0000 000000
2016-06-03 00:08:57,0.06,0.96,0.00,28.33,32.13,34.83,14.20,47.61,1015.13,2014.99,3086.38,2847.19,3228.31,599.84,584.48,13.87,0000 0000 0000 0000 000000
2016-06-03 00:13:58,0.12,0.97,0.00,28.34,32.12,34.79,14.24,47.59,1015.04,2014.99,3084.23,2845.59,3226.51,600.13,584.72,13.92,0000 0000 0000 0000 000000
2016-06-03 00:18:59,0.13,0.97,0.00,28.33,32.12,34.81,14.17,47.53,1015.10,2014.99,3081.54,2843.81,3224.54,599.80,584.31,13.97,0000 0000 0000 0000 000000
2016-06-03 00:24:00,0.09,0.98,0.00,28.32,32.10,34.83,14.23,47.57,1014.88,2015.00,3079.38,2842.29,3222.89,600.34,584.85,14.02,0000 0000 0000 0000 000000
2016-06-03 00:29:02,0.09,0.98,0.00,28.32,32.10,34.76,14.19,47.46,1014.75,2015.00,3077.58,2841.14,3221.40,599.83,584.23,14.07,0000 0000 0000 0000 000000
2016-06-03 00:34:03,0.10,0.99,0.00,28.32,32.10,34.78,14.21,47.33,1014.69,2015.02,3076.02,2839.85,3220.10,600.16,584.76,14.12,0000 0000 0000 0000 000000
2016-06-03 00:39:04,0.10,0.99,0.00,28.32,32.09,34.75,14.23,47.51,1014.68,2015.03,3074.05,2838.21,3218.23,600.16,584.48,14.17,0000 0000 0000 0000 000000
2016-06-03 00:44:05,0.06,1.00,0.00,28.33,32.08,34.71,14.19,47.55,1014.66,2015.03,3072.67,2837.05,3216.96,599.85,584.23,14.22,0000 0000 0000 0000 000000
2016-06-03 00:49:07,0.06,1.00,0.00,28.32,32.07,34.71,14.08,47.41,1014.66,2015.03,3071.51,2836.12,3215.91,599.56,583.97,14.27,0000 0000 0000 0000 000000
2016-06-03 00:54:08,0.05,1.00,0.00,28.32,32.07,34.65,14.16,47.47,1014.66,2015.02,3070.67,2835.16,3215.03,599.97,584.31,14.32,0000 0000 0000 0000 000000
2016-06-03 00:59:10,0.03,1.01,0.00,28.32,32.07,34.64,14.20,47.40,1014.65,2015.06,3070.01,2834.96,3214.31,599.89,584.33,14.37,0000 0000 0000 0000 000000
2016-06-03 01:04:11,0.04,1.01,0.00,28.33,32.05,34.66,14.22,47.49,1014.64,2015.09,3069.34,2834.17,3213.74,599.99,584.42,14.42,0000 0000 0000 0000 000000
2016-06-03 01:09:12,0.06,1.01,0.00,28.33,32.05,34.72,14.22,47.46,1014.59,2015.06,3068.21,2833.21,3212.69,600.26,584.53,14.47,0000 0000 0000 0000 000000
2016-06-03 01:14:13,0.02,1.01,0.00,28.34,32.05,34.70,14.14,47.35,1014.33,2015.09,3067.71,2832.93,3212.02,599.74,583.83,14.52,0000 0000 0000 0000 000000
2016-06-03 01:19:15,0.04,1.01,0.00,28.35,32.05,34.63,14.21,47.37,1014.24,2015.05,3067.03,2832.16,3211.49,600.17,584.26,14.57,0000 0000 0000 0000 000000
2016-06-03 01:24:16,0.01,1.02,0.00,28.35,32.05,34.64,14.25,47.42,1014.19,2015.08,3066.61,2831.99,3211.02,600.09,584.15,14.62,0000 0000 0000 0000 000000
2016-06-03 01:29:17,0.04,1.02,0.00,28.35,32.05,34.66,14.18,47.36,1014.18,2015.12,3066.00,2831.38,3210.59,599.83,583.85,14.67,0000 0000 0000 0000 000000
2016-06-03 01:34:19,0.03,1.02,0.00,28.36,32.04,34.63,14.14,47.33,1014.18,2015.20,3065.41,2831.00,3210.01,600.23,584.26,14.72,0000 0000 0000 0000 000000
2016-06-03 01:39:20,0.01,1.02,0.00,28.36,32.04,34.61,14.16,47.48,1014.19,2015.31,3065.00,2830.93,3209.90,599.92,583.97,14.77,0000 0000 0000 0000 000000
2016-06-03 01:44:22,0.07,1.02,0.00,28.37,32.03,34.62,14.16,47.46,1014.18,2015.38,3064.24,2830.15,3209.12,599.91,584.00,14.82,0000 0000 0000 0000 000000
2016-06-03 01:49:23,0.03,1.03,0.00,28.38,32.03,34.58,14.14,47.48,1014.17,2015.57,3063.69,2829.97,3208.84,599.90,583.84,14.87,0000 0000 0000 0000 000000
2016-06-03 01:54:24,0.03,1.03,0.00,28.38,32.03,34.59,14.20,47.39,1014.14,2015.50,3063.03,2829.54,3208.11,599.91,583.79,14.92,0000 0000 0000 0000 000000
2016-06-03 01:59:26,0.02,1.03,0.00,28.39,32.03,34.58,14.16,47.48,1013.97,2015.50,3062.56,2829.03,3207.95,599.86,583.71,14.97,0000 0000 0000 0000 000000
2016-06-03 02:04:27,0.04,1.03,0.00,28.39,32.04,34.60,14.17,47.41,1013.72,2015.65,3062.01,2828.94,3207.25,600.13,583.89,15.02,0000 0000 0000 0000 000000
2016-06-03 02:09:28,0.04,1.03,0.00,28.40,32.04,34.58,14.18,47.33,1013.70,2015.70,3061.55,2828.21,3207.00,599.92,583.52,15.07,0000 0000 0000 0000 000000
2016-06-03 02:14:30,0.01,1.03,0.00,28.43,32.05,34.56,14.17,47.25,1013.70,2015.72,3061.03,2828.00,3206.69,599.81,583.41,15.13,0000 0000 0000 0000 000000
2016-06-03 02:19:31,0.03,1.03,0.00,28.44,32.05,34.56,14.14,47.48,1013.70,2015.68,3060.44,2827.83,3206.07,600.05,583.68,15.18,0000 0000 0000 0000 000000
2016-06-03 02:24:32,0.06,1.04,0.00,28.45,32.05,34.55,14.11,47.45,1013.70,2015.75,3059.23,2827.06,3205.67,599.73,583.27,15.23,0000 0000 0000 0000 000000
2016-06-03 02:29:33,0.01,1.04,0.00,28.45,32.05,34.55,14.09,47.49,1013.70,2015.76,3058.86,2826.97,3205.05,600.02,583.57,15.28,0000 0000 0000 0000 000000
2016-06-03 02:34:34,0.02,1.04,0.00,28.46,32.05,34.58,14.07,47.27,1013.69,2015.74,3058.14,2826.83,3205.00,599.82,583.44,15.33,0000 0000 0000 0000 000000
2016-06-03 02:39:36,0.01,1.04,0.00,28.48,32.05,34.53,14.14,47.35,1013.69,2015.77,3058.00,2826.25,3204.86,600.10,583.62,15.38,0000 0000 0000 0000 000000
2016-06-03 02:44:36,0.04,1.04,0.00,28.50,32.06,34.55,14.11,47.34,1013.69,2015.83,3057.72,2826.02,3204.29,599.89,583.44,15.43,0000 0000 0000 0000 000000
2016-06-03 02:49:38,-0.00,1.04,0.00,28.50,32.07,34.56,14.22,47.53,1013.69,2015.74,3057.07,2826.00,3204.01,599.96,583.39,15.48,0000 0000 0000 0000 000000
2016-06-03 02:54:39,-0.01,1.04,0.00,28.52,32.07,34.57,14.13,47.36,1013.66,2015.55,3056.99,2825.82,3203.96,599.77,583.16,15.53,0000 0000 0000 0000 000000
2016-06-03 02:59:40,0.02,1.04,0.00,28.52,32.07,34.56,14.20,47.58,1013.66,2015.42,3056.43,2825.16,3203.45,600.43,583.84,15.58,0000 0000 0000 0000 000000
2016-06-03 03:04:41,-0.01,1.04,0.00,28.55,32.08,34.57,14.11,47.83,1013.63,2015.19,3056.01,2825.00,3203.01,599.85,583.15,15.63,0000 0000 0000 0000 000000
2016-06-03 03:09:43,-0.00,1.04,0.00,28.55,32.09,34.58,14.10,47.61,1013.39,2015.11,3055.89,2824.97,3202.98,599.80,583.09,15.68,0000 0000 0000 0000 000000
2016-06-03 03:14:45,0.04,1.04,0.00,28.56,32.10,34.58,14.13,47.64,1013.25,2015.08,3055.16,2824.56,3202.56,599.97,583.10,15.73,0000 0000 0000 0000 000000
2016-06-03 03:19:46,0.02,1.05,0.00,28.57,32.10,34.59,14.18,47.42,1013.21,2015.12,3054.99,2824.12,3202.07,600.63,583.66,15.78,0000 0000 0000 0000 000000
2016-06-03 03:24:47,-0.00,1.05,0.00,28.58,32.10,34.60,14.13,47.56,1013.21,2015.07,3054.70,2824.00,3202.00,600.17,583.25,15.83,0000 0000 0000 0000 000000
2016-06-03 03:29:48,0.01,1.05,0.00,28.59,32.12,34.60,14.11,47.64,1013.21,2015.04,3054.06,2824.00,3201.97,600.06,582.86,15.88,0000 0000 0000 0000 000000
2016-06-03 03:34:49,0.02,1.05,0.00,28.62,32.12,34.63,14.14,47.44,1013.20,2015.03,3053.98,2823.85,3201.55,600.30,583.17,15.93,0000 0000 0000 0000 000000
2016-06-03 03:39:51,0.03,1.05,0.00,28.63,32.12,34.62,14.08,47.51,1013.20,2015.03,3053.44,2823.28,3201.05,599.85,582.75,15.98,0000 0000 0000 0000 000000
2016-06-03 03:44:52,0.00,1.05,0.00,28.65,32.13,34.63,14.16,47.58,1013.19,2015.01,3053.01,2823.02,3200.99,600.18,583.01,16.03,0000 0000 0000 0000 000000
2016-06-03 03:49:53,0.01,1.05,0.00,28.67,32.15,34.61,14.20,47.49,1013.13,2015.00,3052.88,2823.00,3200.77,600.50,583.07,16.08,0000 0000 0000 0000 000000
2016-06-03 03:54:54,0.02,1.05,0.00,28.68,32.15,34.63,14.14,47.53,1012.98,2015.00,3052.37,2822.85,3200.18,600.06,582.81,16.13,0000 0000 0000 0000 000000
2016-06-03 03:59:56,0.02,1.05,0.00,28.69,32.15,34.64,14.12,47.83,1012.86,2015.00,3052.00,2822.25,3200.00,599.56,582.22,16.18,0000 0000 0000 0000 000000
2016-06-03 04:04:57,0.01,1.05,0.00,28.70,32.16,34.65,14.07,48.19,1012.75,2015.00,3051.83,2822.03,3199.97,599.64,582.21,16.23,0000 0000 0000 0000 000000
2016-06-03 04:09:58,0.02,1.05,0.00,28.72,32.17,34.65,14.13,48.27,1012.73,2015.00,3051.10,2822.00,3199.40,599.65,582.10,16.28,0000 0000 0000 0000 000000
2016-06-03 04:14:59,0.00,1.06,0.00,28.73,32.17,34.66,14.13,48.23,1012.72,2014.99,3051.00,2821.92,3199.02,599.66,582.11,16.33,0000 0000 0000 0000 000000
2016-06-03 04:20:01,0.03,1.06,0.00,28.75,32.18,34.67,14.17,48.12,1012.71,2014.99,3050.42,2821.27,3199.00,600.41,582.83,16.38,0000 0000 0000 0000 000000
2016-06-03 04:25:02,0.00,1.06,0.00,28.76,32.20,34.69,14.18,48.05,1012.71,2014.99,3050.01,2821.01,3198.96,600.07,582.45,16.43,0000 0000 0000 0000 000000
2016-06-03 04:30:03,0.00,1.06,0.00,28.77,32.20,34.68,14.11,48.02,1012.71,2014.99,3049.99,2821.00,3198.52,600.24,582.63,16.48,0000 0000 0000 0000 000000
2016-06-03 04:35:04,0.01,1.06,0.00,28.78,32.20,34.69,14.08,47.94,1012.68,2014.98,3049.67,2820.97,3198.05,600.04,582.48,16.53,0000 0000 0000 0000 000000
2016-06-03 04:40:06,0.02,1.06,0.00,28.80,32.22,34.69,14.03,47.78,1012.58,2014.97,3049.11,2820.64,3198.00,599.67,581.93,16.58,0000 0000 0000 0000 000000
2016-06-03 04:45:07,0.00,1.06,0.00,28.81,32.22,34.71,14.12,47.82,1012.37,2014.96,3049.00,2820.08,3197.93,600.53,582.69,16.63,0000 0000 0000 0000 000000
2016-06-03 04:50:08,0.02,1.06,0.00,28.81,32.23,34.72,14.04,47.73,1012.25,2014.96,3048.74,2820.01,3197.44,599.59,581.66,16.68,0000 0000 0000 0000 000000
2016-06-03 04:55:09,0.01,1.06,0.00,28.83,32.25,34.73,14.19,47.73,1012.31,2014.94,3048.09,2820.00,3197.02,600.24,582.30,16.73,0000 0000 0000 0000 000000
2016-06-03 05:00:11,0.00,1.06,0.00,28.83,32.25,34.72,14.10,47.56,1012.24,2014.82,3047.99,2819.66,3196.97,599.97,581.97,16.78,0000 0000 0000 0000 000000
2016-06-03 05:05:12,0.02,1.06,0.00,28.85,32.27,34.75,14.06,47.68,1012.22,2014.56,3047.29,2819.05,3196.33,599.83,581.80,16.83,0000 0000 0000 0000 000000
2016-06-03 05:10:13,0.01,1.06,0.00,28.85,32.27,34.76,14.14,47.64,1012.22,2014.58,3047.01,2819.00,3196.03,600.12,582.04,16.88,0000 0000 0000 0000 000000
2016-06-03 05:15:14,-0.01,1.06,0.00,28.87,32.29,34.78,14.10,47.58,1012.19,2014.40,3046.94,2818.99,3196.00,600.17,582.04,16.93,0000 0000 0000 0000 000000
2016-06-03 05:20:16,0.01,1.06,0.00,28.89,32.30,34.78,14.04,47.58,1012.14,2014.24,3046.25,2818.74,3195.87,599.84,581.69,16.98,0000 0000 0000 0000 000000
2016-06-03 05:25:17,0.02,1.06,0.00,28.90,32.30,34.79,14.09,47.75,1012.09,2014.16,3045.99,2818.13,3195.21,600.01,581.80,17.03,0000 0000 0000 0000 000000
2016-06-03 05:30:18,0.01,1.07,0.00,28.90,32.32,34.80,14.15,47.65,1011.88,2014.08,3045.63,2818.00,3195.00,600.02,581.68,17.08,0000 0000 0000 0000 000000
2016-06-03 05:35:20,0.00,1.07,0.00,28.92,32.32,34.81,14.03,47.55,1011.78,2014.03,3045.04,2817.94,3194.87,599.99,581.62,17.13,0000 0000 0000 0000 000000
2016-06-03 05:40:21,0.04,1.07,0.00,28.92,32.35,34.82,14.14,47.64,1011.75,2014.02,3044.84,2817.33,3194.17,600.27,581.75,17.18,0000 0000 0000 0000 000000
2016-06-03 05:45:22,0.02,1.07,0.00,28.94,32.35,34.83,14.18,47.60,1011.76,2014.02,3044.14,2817.03,3194.00,600.14,581.72,17.23,0000 0000 0000 0000 000000
2016-06-03 05:50:24,0.00,1.07,0.00,28.95,32.36,34.84,14.13,47.63,1011.75,2014.00,3043.91,2816.99,3193.85,599.89,581.52,17.28,0000 0000 0000 0000 000000
2016-06-03 05:55:25,0.04,1.07,0.00,28.94,32.37,34.85,14.09,47.67,1011.76,2014.00,3043.14,2816.70,3193.13,600.08,581.59,17.33,0000 0000 0000 0000 000000
2016-06-03 06:00:27,0.01,1.07,0.00,28.96,32.38,34.85,14.03,47.66,1011.76,2014.00,3042.99,2816.11,3193.00,599.80,581.29,17.38,0000 0000 0000 0000 000000
2016-06-03 06:05:28,0.00,1.07,0.00,28.98,32.40,34.86,14.11,47.63,1011.74,2014.00,3042.90,2816.01,3192.99,600.23,581.78,17.43,0000 0000 0000 0000 000000
2016-06-03 06:10:29,0.02,1.07,0.00,28.99,32.40,34.88,14.16,47.61,1011.74,2014.00,3042.16,2816.00,3192.59,600.17,581.53,17.48,0000 0000 0000 0000 000000
2016-06-03 06:15:31,0.00,1.07,0.00,28.99,32.40,34.87,14.13,47.52,1011.75,2014.00,3041.97,2815.97,3192.04,599.97,581.28,17.53,0000 0000 0000 0000 000000
2016-06-03 06:20:32,0.02,1.07,0.00,29.01,32.42,34.88,14.09,47.61,1011.74,2013.99,3041.60,2815.52,3192.00,600.11,581.49,17.58,0000 0000 0000 0000 000000
2016-06-03 06:25:33,0.02,1.08,0.00,29.01,32.42,34.89,14.10,47.63,1011.73,2013.99,3041.04,2815.07,3191.94,599.99,581.37,17.63,0000 0000 0000 0000 000000
2016-06-03 06:30:34,0.01,1.08,0.00,29.02,32.42,34.91,14.09,47.39,1011.75,2013.97,3040.96,2815.00,3191.36,599.98,581.29,17.68,0000 0000 0000 0000 000000
2016-06-03 06:35:35,0.01,1.08,0.00,29.04,32.44,34.92,14.10,47.54,1011.74,2013.97,3040.31,2814.99,3191.01,599.97,581.30,17.73,0000 0000 0000 0000 000000
2016-06-03 06:40:36,0.01,1.08,0.00,29.05,32.45,34.93,14.13,47.46,1011.73,2013.98,3040.01,2814.91,3190.99,600.15,581.47,17.78,0000 0000 0000 0000 000000
2016-06-03 06:45:37,0.01,1.08,0.00,29.06,32.45,34.92,14.11,47.46,1011.73,2013.95,3039.99,2814.41,3190.86,600.23,581.44,17.83,0000 0000 0000 0000 000000
2016-06-03 06:50:39,0.02,1.08,0.00,29.10,32.45,34.92,14.09,47.46,1011.71,2013.92,3039.48,2814.03,3190.17,600.02,581.22,17.88,0000 0000 0000 0000 000000
2016-06-03 06:55:40,0.01,1.08,0.00,29.12,32.47,34.95,14.14,47.40,1011.71,2013.94,3039.02,2814.00,3190.01,599.96,581.12,17.93,0000 0000 0000 0000 000000
2016-06-03 07:00:41,-0.01,1.08,0.00,29.15,32.47,34.96,14.11,47.49,1011.73,2013.84,3038.75,2813.96,3189.99,600.17,581.29,17.98,0000 0000 0000 0000 000000
2016-06-03 07:05:43,0.01,1.08,0.00,29.18,32.48,34.96,14.09,47.45,1011.69,2013.71,3038.21,2813.77,3189.85,599.83,580.97,18.03,0000 0000 0000 0000 000000
2016-06-03 07:10:44,0.01,1.08,0.00,29.20,32.50,34.96,14.00,47.30,1011.49,2013.57,3038.01,2813.17,3189.19,599.68,580.62,18.08,0000 0000 0000 0000 000000
2016-06-03 07:15:45,0.02,1.08,0.00,29.21,32.50,34.98,14.08,47.36,1011.42,2013.65,3037.96,2813.01,3189.00,600.05,580.82,18.13,0000 0000 0000 0000 000000
2016-06-03 07:20:47,-0.00,1.08,0.00,29.22,32.51,35.00,14.00,47.54,1011.30,2013.52,3037.44,2813.00,3188.99,599.69,580.42,18.18,0000 0000 0000 0000 000000
2016-06-03 07:25:48,-0.01,1.08,0.00,29.24,32.52,35.00,14.13,47.46,1011.43,2013.39,3037.01,2812.98,3188.96,600.03,580.80,18.23,0000 0000 0000 0000 000000
2016-06-03 07:30:49,0.00,1.08,0.00,29.24,32.52,35.02,14.09,47.52,1011.41,2013.18,3036.99,2812.75,3188.38,600.11,580.80,18.29,0000 0000 0000 0000 000000
2016-06-03 07:35:51,0.02,1.08,0.00,29.25,32.54,35.02,14.08,47.52,1011.35,2013.07,3036.79,2812.21,3188.02,600.12,580.87,18.34,0000 0000 0000 0000 000000
2016-06-03 07:40:52,0.01,1.08,0.00,29.25,32.55,35.02,14.08,47.35,1011.48,2013.05,3036.13,2812.02,3188.00,599.97,580.70,18.39,0000 0000 0000 0000 000000
2016-06-03 07:45:53,0.00,1.08,0.00,29.24,32.55,35.04,14.06,47.35,1011.72,2013.04,3036.00,2812.00,3187.96,599.96,580.96,18.44,0000 0000 0000 0000 000000
2016-06-03 07:50:54,0.01,1.08,0.00,29.23,32.57,35.05,14.04,47.44,1011.61,2013.00,3035.85,2811.96,3187.38,599.90,580.82,18.49,0000 0000 0000 0000 000000
2016-06-03 07:55:55,0.02,1.09,0.00,29.23,32.57,35.06,14.12,47.45,1011.68,2013.00,3035.14,2811.68,3187.03,600.02,580.94,18.54,0000 0000 0000 0000 000000
2016-06-03 08:00:57,0.01,1.09,0.00,29.24,32.57,35.07,14.07,47.38,1011.71,2013.00,3034.99,2811.10,3186.99,600.02,580.96,18.59,0000 0000 0000 0000 000000
2016-06-03 08:05:58,0.01,1.09,0.00,29.24,32.57,35.08,14.10,47.47,1011.70,2013.00,3034.44,2811.00,3186.90,599.91,580.85,18.64,0000 0000 0000 0000 000000
2016-06-03 08:10:59,0.01,1.09,0.00,29.27,32.58,35.07,14.16,47.60,1011.51,2013.00,3034.02,2810.99,3186.42,600.07,580.85,18.69,0000 0000 0000 0000 000000
2016-06-03 08:16:00,0.01,1.09,0.00,29.27,32.60,35.10,14.13,47.57,1011.27,2013.00,3033.89,2810.83,3186.02,600.14,580.74,18.74,0000 0000 0000 0000 000000
2016-06-03 08:21:01,0.03,1.09,0.00,29.29,32.60,35.09,14.09,47.55,1011.26,2013.00,3033.25,2810.14,3185.98,599.99,580.56,18.79,0000 0000 0000 0000 000000
2016-06-03 08:26:02,0.01,1.09,0.00,29.32,32.60,35.11,14.05,47.42,1011.28,2013.00,3033.01,2810.00,3185.53,600.02,580.63,18.84,0000 0000 0000 0000 000000
2016-06-03 08:31:04,0.00,1.09,0.00,29.31,32.61,35.10,14.08,47.35,1011.34,2013.00,3032.99,2810.00,3185.08,599.90,580.54,18.89,0000 0000 0000 0000 000000
2016-06-03 08:36:05,0.00,1.09,0.00,29.30,32.62,35.10,14.03,47.33,1011.30,2013.00,3032.80,2809.96,3185.00,599.87,580.40,18.94,0000 0000 0000 0000 000000
2016-06-03 08:41:07,0.02,1.09,0.00,29.29,32.62,35.12,14.09,47.45,1011.31,2013.00,3032.23,2809.75,3184.99,599.72,580.36,18.99,0000 0000 0000 0000 000000
2016-06-03 08:46:08,0.02,1.09,0.00,29.27,32.63,35.12,14.13,47.34,1011.32,2012.96,3032.00,2809.15,3184.72,600.26,580.89,19.04,0000 0000 0000 0000 000000
2016-06-03 08:51:09,0.00,1.09,0.00,29.25,32.63,35.13,14.08,47.36,1011.34,2012.92,3031.97,2809.00,3184.15,600.03,580.73,19.09,0000 0000 0000 0000 000000
2016-06-03 08:56:10,0.01,1.10,0.00,29.24,32.64,35.14,14.08,47.59,1011.66,2012.91,3031.62,2809.00,3184.01,599.91,580.80,19.14,0000 0000 0000 0000 000000
2016-06-03 09:01:12,0.01,1.10,0.00,29.25,32.64,35.16,14.12,47.62,1011.72,2012.93,3031.04,2808.98,3184.00,600.15,581.12,19.19,0000 0000 0000 0000 000000
2016-06-03 09:06:13,0.05,1.10,0.00,29.24,32.63,35.14,14.08,47.47,1011.73,2012.91,3030.37,2808.33,3183.49,600.06,580.97,19.24,0000 0000 0000 0000 000000
2016-06-03 09:11:14,0.11,1.10,0.00,29.22,32.63,35.14,14.08,47.59,1012.08,2012.92,3028.28,2807.01,3181.94,599.79,581.00,19.29,0000 0000 0000 0000 000000
2016-06-03 09:16:16,0.14,1.11,0.00,29.23,32.63,35.14,14.03,47.60,1012.76,2012.96,3025.72,2805.39,3180.08,599.84,581.31,19.34,0000 0000 0000 0000 000000
2016-06-03 09:21:17,0.41,1.12,0.00,29.22,32.62,35.13,14.09,47.67,1012.85,2012.98,3019.37,2800.97,3175.08,599.98,581.55,19.39,0000 0000 0000 0000 000000
2016-06-03 09:26:19,0.18,1.14,0.00,29.19,32.62,35.14,14.06,47.45,1013.20,2012.95,3014.40,2797.13,3170.61,599.97,581.88,19.44,0000 0000 0000 0000 000000
2016-06-03 09:31:20,0.09,1.14,0.00,29.19,32.62,35.15,14.11,47.52,1013.19,2012.96,3012.85,2795.79,3169.23,600.19,582.00,19.49,0000 0000 0000 0000 000000
2016-06-03 09:36:21,0.09,1.15,0.00,29.16,32.62,35.13,14.05,47.27,1013.49,2012.95,3011.36,2794.54,3167.72,599.81,581.89,19.54,0000 0000 0000 0000 000000
2016-06-03 09:41:23,0.21,1.16,0.00,29.15,32.62,35.13,14.08,47.30,1013.70,2012.97,3008.00,2792.08,3164.92,599.85,582.14,19.59,0000 0000 0000 0000 000000
2016-06-03 09:46:24,0.18,1.17,0.00,29.13,32.60,35.14,14.08,47.05,1013.69,2012.96,3004.35,2789.40,3161.87,600.16,582.52,19.64,0000 0000 0000 0000 000000
2016-06-03 09:51:25,0.08,1.17,0.00,29.10,32.60,35.13,14.09,47.27,1013.65,2012.99,3002.51,2788.10,3160.47,599.77,582.11,19.69,0000 0000 0000 0000 000000
2016-06-03 09:56:26,0.08,1.18,0.00,29.09,32.60,35.12,14.11,47.37,1013.24,2012.99,3001.12,2787.01,3159.35,600.14,582.23,19.74,0000 0000 0000 0000 000000
2016-06-03 10:01:27,0.06,1.18,0.00,29.06,32.60,35.15,14.13,47.49,1013.20,2012.99,2999.52,2786.04,3158.08,600.06,582.15,19.79,0000 0000 0000 0000 000000
2016-06-03 10:06:28,0.01,1.18,0.00,29.04,32.59,35.12,14.14,47.26,1013.31,2012.99,2999.01,2785.87,3157.94,600.06,582.38,19.84,0000 0000 0000 0000 000000
2016-06-03 10:11:29,0.04,1.19,0.00,29.01,32.57,35.12,14.09,47.31,1013.48,2012.99,2998.71,2785.22,3157.31,600.02,582.40,19.89,0000 0000 0000 0000 000000
2016-06-03 10:16:31,0.01,1.19,0.00,29.00,32.57,35.12,14.16,47.44,1013.68,2012.99,2998.07,2785.02,3157.03,600.19,582.76,19.94,0000 0000 0000 0000 000000
2016-06-03 10:21:32,0.00,1.19,0.00,28.99,32.56,35.11,14.15,47.38,1013.70,2012.99,2997.99,2785.00,3157.00,600.17,582.66,19.99,0000 0000 0000 0000 000000
2016-06-03 10:26:33,0.01,1.19,0.00,28.98,32.55,35.08,14.07,47.33,1013.87,2012.99,2997.68,2784.98,3156.96,600.05,582.65,20.04,0000 0000 0000 0000 000000
2016-06-03 10:31:34,0.05,1.19,0.00,28.95,32.54,35.06,14.14,47.33,1014.16,2012.99,2996.81,2784.42,3156.28,599.81,582.73,20.09,0000 0000 0000 0000 000000
2016-06-03 10:36:36,0.01,1.19,0.00,28.94,32.52,35.07,14.12,47.23,1014.16,2012.99,2996.05,2784.00,3155.88,599.99,582.89,20.14,0000 0000 0000 0000 000000
2016-06-03 10:41:37,0.04,1.19,0.00,28.93,32.52,35.06,14.17,47.45,1014.13,2012.99,2995.42,2783.65,3155.12,600.29,583.13,20.19,0000 0000 0000 0000 000000
2016-06-03 10:46:38,0.02,1.19,0.00,28.90,32.50,35.05,14.12,47.37,1013.93,2013.01,2994.81,2783.04,3154.79,599.95,582.74,20.24,0000 0000 0000 0000 000000
2016-06-03 10:51:39,0.06,1.20,0.00,28.88,32.50,35.03,14.10,47.33,1013.75,2013.01,2993.85,2782.21,3153.80,599.96,582.74,20.29,0000 0000 0000 0000 000000
2016-06-03 10:56:41,0.05,1.20,0.00,28.84,32.49,35.06,14.24,47.42,1013.75,2013.03,2993.01,2781.38,3152.89,600.24,583.10,20.34,0000 0000 0000 0000 000000
2016-06-03 11:01:42,0.03,1.20,0.00,28.81,32.47,35.08,14.13,47.34,1013.70,2013.04,2992.18,2780.95,3152.08,599.59,582.48,20.39,0000 0000 0000 0000 000000
2016-06-03 11:06:43,0.04,1.20,0.00,28.78,32.45,35.09,14.12,47.32,1013.70,2013.06,2991.97,2780.30,3151.72,600.08,583.07,20.44,0000 0000 0000 0000 000000
2016-06-03 11:11:45,0.02,1.21,0.00,28.77,32.44,35.13,14.12,47.49,1013.70,2013.07,2991.38,2780.01,3151.09,599.98,582.92,20.49,0000 0000 0000 0000 000000
2016-06-03 11:16:46,0.02,1.21,0.00,28.73,32.42,35.19,14.16,47.30,1013.69,2013.24,2991.01,2780.00,3151.00,600.06,583.01,20.54,0000 0000 0000 0000 000000
2016-06-03 11:21:47,0.03,1.21,0.00,28.69,32.40,35.19,14.19,47.65,1013.73,2013.41,2990.65,2779.86,3150.92,600.06,583.20,20.59,0000 0000 0000 0000 000000
2016-06-03 11:26:49,0.08,1.21,0.00,28.66,32.39,35.20,14.21,47.52,1013.74,2013.72,2989.70,2779.07,3150.11,600.08,583.28,20.64,0000 0000 0000 0000 000000
2016-06-03 11:31:50,0.08,1.22,0.00,28.63,32.37,35.18,14.14,47.48,1013.70,2013.83,2988.35,2778.23,3149.17,599.78,583.07,20.69,0000 0000 0000 0000 000000
2016-06-03 11:36:51,0.07,1.22,0.00,28.60,32.35,35.15,14.10,47.51,1013.70,2013.89,2986.95,2777.55,3148.33,599.83,583.14,20.74,0000 0000 0000 0000 000000
2016-06-03 11:41:52,0.06,1.22,0.00,28.57,32.32,35.17,14.15,47.54,1013.70,2013.98,2985.61,2776.80,3147.58,599.85,583.30,20.79,0000 0000 0000 0000 000000
2016-06-03 11:46:53,0.08,1.23,0.00,28.55,32.30,35.14,14.11,47.52,1013.60,2013.99,2983.84,2775.73,3146.23,599.89,583.33,20.84,0000 0000 0000 0000 000000
2016-06-03 11:51:55,0.04,1.23,0.00,28.52,32.28,35.19,14.26,47.73,1013.25,2013.99,2982.79,2774.98,3145.36,600.26,583.37,20.89,0000 0000 0000 0000 000000
2016-06-03 11:56:56,0.07,1.23,0.00,28.49,32.26,35.12,14.16,47.61,1013.28,2013.99,2981.44,2774.03,3144.42,599.92,583.21,20.94,0000 0000 0000 0000 000000
2016-06-03 12:01:57,0.06,1.24,0.00,28.45,32.24,35.12,14.16,47.51,1013.39,2013.99,2980.10,2773.09,3143.31,599.96,583.31,20.99,0000 0000 0000 0000 000000
2016-06-03 12:06:59,0.00,1.24,0.00,28.43,32.22,35.10,14.21,47.78,1013.25,2014.02,2979.87,2773.00,3143.02,600.15,583.49,21.04,0000 0000 0000 0000 000000
2016-06-03 12:12:00,0.01,1.24,0.00,28.41,32.20,35.10,14.26,47.66,1013.21,2014.05,2979.16,2772.97,3142.99,600.23,583.51,21.09,0000 0000 0000 0000 000000
2016-06-03 12:17:01,0.00,1.24,0.00,28.37,32.17,35.08,14.13,47.60,1013.20,2014.12,2979.02,2772.90,3142.97,599.73,583.20,21.14,0000 0000 0000 0000 000000
2016-06-03 12:22:03,0.06,1.24,0.00,28.34,32.15,35.07,14.20,47.55,1013.21,2014.54,2979.00,2772.82,3142.92,600.09,583.57,21.19,0000 0000 0000 0000 000000
2016-06-03 12:27:04,0.03,1.24,0.00,28.31,32.12,35.07,14.17,47.52,1013.20,2014.86,2978.98,2772.44,3142.65,600.13,583.66,21.24,0000 0000 0000 0000 000000
2016-06-03 12:32:05,0.03,1.25,0.00,28.28,32.10,35.05,14.20,47.48,1013.19,2014.98,2978.78,2772.20,3142.22,600.08,583.70,21.29,0000 0000 0000 0000 000000
2016-06-03 12:37:06,0.01,1.25,0.00,28.25,32.07,34.99,14.20,47.49,1013.11,2014.99,2978.23,2772.04,3142.02,600.38,584.01,21.34,0000 0000 0000 0000 000000
2016-06-03 12:42:07,0.00,1.25,0.00,28.22,32.05,34.98,14.19,47.62,1012.75,2014.99,2978.01,2772.00,3142.00,600.26,583.72,21.39,0000 0000 0000 0000 000000
2016-06-03 12:47:08,0.00,1.25,0.00,28.19,32.03,34.99,14.14,47.45,1012.72,2014.99,2978.00,2772.01,3142.00,600.25,583.65,21.44,0000 0000 0000 0000 000000
2016-06-03 12:52:10,0.02,1.25,0.00,28.17,32.00,34.95,14.13,47.58,1012.72,2015.11,2978.01,2772.02,3142.01,599.90,583.47,21.49,0000 0000 0000 0000 000000
2016-06-03 12:57:11,0.00,1.25,0.00,28.14,31.98,34.95,14.16,47.56,1012.71,2015.21,2978.00,2772.03,3142.00,600.17,583.72,21.54,0000 0000 0000 0000 000000